V8BKH WBSB-RPVM

Flight info

Callsign V8BKH
Flight time N/A
Altitude 41000
Route REKOS W461 VSN A341 ZAM G578 ALDIN ALDIN3P
Aircraft B748/H-SDE3FGHIM1M2RWXY/LB1

Departure

Time N/A
Airport Brunei International Airport (WBSB)

Arrival

Time 2026-05-07 12:32
Airport Mactan Cebu International Airport (RPVM)
Time Latitude Longitude Altitude Speed Heading
2026-05-07 11:42 6.64407 120.94569 33801 ft 469 kts 75°
2026-05-07 11:43 6.65209 120.97747 33802 ft 469 kts 76°
2026-05-07 11:43 6.66840 121.04163 33804 ft 471 kts 75°
2026-05-07 11:44 6.68469 121.10568 33801 ft 471 kts 75°
2026-05-07 11:44 6.70094 121.16956 33805 ft 472 kts 75°
2026-05-07 11:45 6.71732 121.23396 33808 ft 472 kts 75°
2026-05-07 11:45 6.73351 121.29831 33804 ft 470 kts 75°
2026-05-07 11:46 6.74948 121.36153 33808 ft 470 kts 75°
2026-05-07 11:46 6.76555 121.42498 33807 ft 469 kts 75°
2026-05-07 11:47 6.78171 121.48890 33813 ft 469 kts 75°
2026-05-07 11:47 6.79797 121.55308 33815 ft 469 kts 75°
2026-05-07 11:48 6.81423 121.61733 33826 ft 470 kts 75°
2026-05-07 11:48 6.82916 121.67627 33830 ft 470 kts 75°
2026-05-07 11:49 6.84538 121.74056 33838 ft 471 kts 76°
2026-05-07 11:49 6.86159 121.80474 33827 ft 470 kts 76°
2026-05-07 11:50 6.87779 121.86908 33826 ft 468 kts 75°
2026-05-07 11:50 6.89355 121.93145 33830 ft 468 kts 75°
2026-05-07 11:51 6.90980 121.99585 33822 ft 468 kts 75°
2026-05-07 11:51 6.92087 122.02715 33797 ft 468 kts 63°
2026-05-07 11:51 6.93737 122.05386 33810 ft 469 kts 51°
2026-05-07 11:51 6.96076 122.07787 33815 ft 468 kts 38°
2026-05-07 11:52 6.98812 122.09567 33814 ft 468 kts 27°
2026-05-07 11:52 7.04694 122.12577 33853 ft 467 kts 28°
2026-05-07 11:53 7.10386 122.15703 33849 ft 465 kts 29°
2026-05-07 11:53 7.15890 122.18787 33819 ft 466 kts 29°
2026-05-07 11:54 7.21670 122.22040 33830 ft 468 kts 29°
2026-05-07 11:54 7.27428 122.25295 33821 ft 468 kts 29°
2026-05-07 11:55 7.33153 122.28532 33824 ft 467 kts 29°
2026-05-07 11:55 7.38773 122.31708 33838 ft 467 kts 29°
2026-05-07 11:56 7.44512 122.34960 33826 ft 467 kts 29°
2026-05-07 11:56 7.50055 122.38088 33809 ft 467 kts 30°
2026-05-07 11:57 7.55564 122.41176 33836 ft 468 kts 30°
2026-05-07 11:57 7.61280 122.44396 33861 ft 466 kts 31°
2026-05-07 11:58 7.66923 122.47649 33834 ft 470 kts 30°
2026-05-07 11:58 7.72669 122.50916 33843 ft 474 kts 30°
2026-05-07 11:59 7.78482 122.54194 33859 ft 474 kts 30°
2026-05-07 11:59 7.84290 122.57501 33855 ft 471 kts 30°
2026-05-07 12:00 7.90084 122.60780 33862 ft 471 kts 30°
2026-05-07 12:00 7.95678 122.63961 33867 ft 473 kts 31°
2026-05-07 12:01 8.01222 122.67107 33864 ft 472 kts 30°
2026-05-07 12:01 8.06860 122.70317 33879 ft 472 kts 30°
2026-05-07 12:02 8.12438 122.73483 33862 ft 471 kts 30°
2026-05-07 12:02 8.18226 122.76778 33876 ft 474 kts 30°
2026-05-07 12:03 8.24028 122.80084 33851 ft 474 kts 30°
2026-05-07 12:03 8.29796 122.83360 33863 ft 474 kts 31°
2026-05-07 12:04 8.35090 122.86380 33854 ft 474 kts 30°
2026-05-07 12:04 8.40680 122.89560 33857 ft 473 kts 30°
2026-05-07 12:05 8.46415 122.92823 33843 ft 471 kts 30°
2026-05-07 12:05 8.52157 122.96093 33846 ft 472 kts 30°
2026-05-07 12:06 8.57895 122.99361 33843 ft 472 kts 30°
2026-05-07 12:06 8.63672 123.02651 33843 ft 472 kts 30°
2026-05-07 12:07 8.69440 123.05939 33843 ft 472 kts 30°
2026-05-07 12:07 8.75111 123.09188 33326 ft 477 kts 30°
2026-05-07 12:07 8.78059 123.10862 32695 ft 477 kts 30°
2026-05-07 12:08 8.80933 123.12504 32047 ft 475 kts 30°
2026-05-07 12:08 8.83825 123.14160 31354 ft 465 kts 30°
2026-05-07 12:08 8.86651 123.15778 30582 ft 455 kts 30°
2026-05-07 12:08 8.89408 123.17344 29807 ft 446 kts 30°
2026-05-07 12:09 8.91929 123.18784 28900 ft 434 kts 30°
2026-05-07 12:09 8.94529 123.20278 28213 ft 425 kts 30°
2026-05-07 12:09 8.97074 123.21720 27488 ft 417 kts 30°
2026-05-07 12:09 8.99579 123.23141 26761 ft 410 kts 31°
2026-05-07 12:10 9.02070 123.24552 26025 ft 403 kts 31°
2026-05-07 12:10 9.04524 123.25952 25284 ft 397 kts 31°
2026-05-07 12:10 9.06871 123.27294 24567 ft 391 kts 31°
2026-05-07 12:10 9.09240 123.28658 23830 ft 385 kts 32°
2026-05-07 12:11 9.11379 123.29905 23166 ft 380 kts 32°
2026-05-07 12:11 9.13389 123.31139 22507 ft 375 kts 34°
2026-05-07 12:11 9.15535 123.32354 21871 ft 370 kts 30°
2026-05-07 12:11 9.17543 123.33454 21311 ft 365 kts 32°
2026-05-07 12:12 9.19769 123.34723 20699 ft 358 kts 32°
2026-05-07 12:12 9.21916 123.35937 20104 ft 353 kts 32°
2026-05-07 12:12 9.24042 123.37151 19510 ft 348 kts 32°
2026-05-07 12:12 9.26153 123.38357 18922 ft 343 kts 32°
2026-05-07 12:13 9.28206 123.39535 18381 ft 346 kts 31°
2026-05-07 12:13 9.30299 123.40726 17834 ft 342 kts 32°
2026-05-07 12:13 9.32388 123.41921 17283 ft 342 kts 31°
2026-05-07 12:13 9.34498 123.43130 16731 ft 346 kts 31°
2026-05-07 12:14 9.36669 123.44370 16275 ft 359 kts 31°
2026-05-07 12:14 9.38712 123.45529 15813 ft 350 kts 32°
2026-05-07 12:14 9.40812 123.46727 15302 ft 341 kts 32°
2026-05-07 12:14 9.42874 123.47900 14795 ft 333 kts 32°
2026-05-07 12:15 9.44897 123.49062 14316 ft 325 kts 32°
2026-05-07 12:15 9.46855 123.50180 13891 ft 317 kts 32°
2026-05-07 12:15 9.48722 123.51247 13521 ft 316 kts 32°
2026-05-07 12:15 9.50663 123.52351 13163 ft 318 kts 32°
2026-05-07 12:16 9.52617 123.53472 12815 ft 319 kts 32°
2026-05-07 12:16 9.54579 123.54594 12447 ft 318 kts 32°
2026-05-07 12:16 9.56406 123.55650 12078 ft 316 kts 33°
2026-05-07 12:16 9.58206 123.56698 11733 ft 308 kts 33°
2026-05-07 12:17 9.60005 123.57755 11435 ft 297 kts 31°
2026-05-07 12:17 9.61751 123.58478 11155 ft 290 kts 22°
2026-05-07 12:17 9.63621 123.59113 10893 ft 280 kts 23°
2026-05-07 12:17 9.65334 123.59737 10646 ft 271 kts 24°
2026-05-07 12:18 9.66993 123.60334 10416 ft 271 kts 24°
2026-05-07 12:18 9.68821 123.61003 10159 ft 276 kts 24°
2026-05-07 12:18 9.70601 123.61652 9905 ft 276 kts 24°
2026-05-07 12:18 9.72427 123.62320 9642 ft 273 kts 24°
2026-05-07 12:19 9.74192 123.62967 9385 ft 272 kts 24°
2026-05-07 12:19 9.75987 123.63627 9119 ft 271 kts 24°
2026-05-07 12:19 9.77731 123.64262 8860 ft 270 kts 24°
2026-05-07 12:19 9.79519 123.64916 8592 ft 268 kts 24°
2026-05-07 12:20 9.81130 123.65507 8354 ft 266 kts 24°
2026-05-07 12:20 9.82901 123.66157 8096 ft 264 kts 24°
2026-05-07 12:20 9.84627 123.66789 7835 ft 263 kts 24°
2026-05-07 12:20 9.86385 123.67439 7562 ft 262 kts 24°
2026-05-07 12:21 9.87936 123.68012 7331 ft 262 kts 24°
2026-05-07 12:21 9.89604 123.68626 7237 ft 250 kts 24°
2026-05-07 12:21 9.91157 123.69193 7333 ft 248 kts 24°
2026-05-07 12:21 9.92824 123.69810 7118 ft 256 kts 24°
2026-05-07 12:22 9.94515 123.70431 6878 ft 256 kts 24°
2026-05-07 12:22 9.96120 123.71014 6645 ft 254 kts 24°
2026-05-07 12:22 9.97799 123.71629 6394 ft 252 kts 24°
2026-05-07 12:22 9.99420 123.72219 6143 ft 250 kts 25°
2026-05-07 12:23 10.01016 123.72813 5904 ft 247 kts 24°
2026-05-07 12:23 10.02458 123.73341 5575 ft 213 kts 25°
2026-05-07 12:23 10.03749 123.73817 5181 ft 185 kts 25°
2026-05-07 12:23 10.04875 123.74239 5047 ft 173 kts 26°
2026-05-07 12:24 10.05954 123.74655 4569 ft 187 kts 25°
2026-05-07 12:24 10.07185 123.75124 4251 ft 184 kts 25°
2026-05-07 12:24 10.08299 123.75618 4044 ft 173 kts 38°
2026-05-07 12:24 10.09157 123.76411 3946 ft 165 kts 48°
2026-05-07 12:25 10.09984 123.77226 4059 ft 166 kts 46°
2026-05-07 12:25 10.10817 123.78024 4263 ft 171 kts 47°
2026-05-07 12:25 10.11681 123.78854 4248 ft 165 kts 46°
2026-05-07 12:25 10.12475 123.79620 4044 ft 158 kts 47°
2026-05-07 12:26 10.13300 123.80438 3848 ft 166 kts 47°
2026-05-07 12:26 10.14150 123.81275 3734 ft 169 kts 47°
2026-05-07 12:26 10.14984 123.82115 3675 ft 168 kts 47°
2026-05-07 12:26 10.15716 123.82855 3578 ft 171 kts 46°
2026-05-07 12:27 10.16560 123.83689 3465 ft 172 kts 46°
2026-05-07 12:27 10.17407 123.84535 3356 ft 170 kts 46°
2026-05-07 12:27 10.18259 123.85380 3228 ft 165 kts 46°
2026-05-07 12:27 10.19054 123.86177 3090 ft 152 kts 46°
2026-05-07 12:28 10.19758 123.86891 2973 ft 143 kts 47°
2026-05-07 12:28 10.20448 123.87582 2861 ft 140 kts 46°
2026-05-07 12:28 10.21002 123.88124 2699 ft 140 kts 45°
2026-05-07 12:28 10.21706 123.88792 2585 ft 135 kts 45°
2026-05-07 12:29 10.22399 123.89455 2495 ft 136 kts 47°
2026-05-07 12:29 10.22849 123.89906 2394 ft 139 kts 47°
2026-05-07 12:29 10.23482 123.90537 2180 ft 140 kts 46°
2026-05-07 12:29 10.24171 123.91230 1988 ft 137 kts 48°
2026-05-07 12:30 10.24828 123.91930 1757 ft 138 kts 48°
2026-05-07 12:30 10.25508 123.92652 1337 ft 141 kts 47°
2026-05-07 12:30 10.26130 123.93323 1049 ft 135 kts 47°
2026-05-07 12:30 10.26779 123.94000 856 ft 134 kts 45°
2026-05-07 12:31 10.27439 123.94659 679 ft 136 kts 44°
2026-05-07 12:31 10.27826 123.95033 599 ft 136 kts 44°
2026-05-07 12:31 10.28341 123.95550 451 ft 138 kts 44°
2026-05-07 12:31 10.28767 123.95976 330 ft 139 kts 43°
2026-05-07 12:32 10.29421 123.96621 139 ft 139 kts 43°
2026-05-07 12:32 10.30082 123.97276 47 ft 134 kts 43°
2026-05-07 12:32 10.30646 123.97833 37 ft 85 kts 44°
2026-05-07 12:32 10.30889 123.98074 37 ft 24 kts 44°
2026-05-07 12:33 10.31165 123.98303 37 ft 36 kts 20°
2026-05-07 12:33 10.31371 123.98340 36 ft 26 kts 334°
2026-05-07 12:33 10.31442 123.98215 36 ft 12 kts 234°
2026-05-07 12:34 10.31352 123.98125 36 ft 22 kts 226°
2026-05-07 12:34 10.31239 123.98013 36 ft 21 kts 223°
2026-05-07 12:34 10.31131 123.97909 36 ft 20 kts 224°
2026-05-07 12:34 10.31034 123.97809 36 ft 18 kts 225°
2026-05-07 12:35 10.30947 123.97723 36 ft 17 kts 225°
2026-05-07 12:35 10.30863 123.97637 36 ft 16 kts 225°
2026-05-07 12:35 10.30794 123.97567 36 ft 14 kts 224°
2026-05-07 12:35 10.30727 123.97498 36 ft 12 kts 226°
2026-05-07 12:36 10.30660 123.97432 36 ft 14 kts 224°
2026-05-07 12:36 10.30576 123.97378 36 ft 14 kts 184°
2026-05-07 12:36 10.30532 123.97444 36 ft 13 kts 69°
2026-05-07 12:36 10.30598 123.97515 36 ft 15 kts 44°
2026-05-07 12:37 10.30682 123.97603 36 ft 20 kts 46°
2026-05-07 12:37 10.30796 123.97714 36 ft 24 kts 32°
2026-05-07 12:37 10.30930 123.97709 36 ft 15 kts
2026-05-07 12:37 10.31026 123.97652 36 ft 19 kts 314°
2026-05-07 12:38 10.30988 123.97562 36 ft 16 kts 226°
2026-05-07 12:38 10.30963 123.97535 36 ft 1 kts 226°
2026-05-07 12:38 10.30958 123.97530 36 ft 0 kts 226°
2026-05-07 12:38 10.30953 123.97525 36 ft 0 kts 227°